Vorticity
3 3 2 3 3 2 4 1 1 7 3 4 8 6 7 4 2 3 8 7 1 4 3 1 1 -0 -0 -0 1 2 2 0 1 2 0 -4 -4 -1 0 1 1 2 3 3 4 6 7 6 -0 -1 4 13 18 9 6 8 8 7 4 3 2 2 3 3 4 4 4 4 4 4 5 5 6 6 5 4 2 2 3 4 6 7 5 6 11 10 4 4 7 7 8 7 7 6 5 4 4
3 4 3 3 4 1 6 3 -0 7 3 3 6 6 8 3 3 1 4 9 3 3 5 4 2 1 1 1 1 2 3 3 2 2 0 -1 1 2 1 2 2 3 4 4 6 6 5 3 -1 2 9 15 16 8 6 7 8 7 5 3 2 3 3 3 4 4 4 4 4 4 5 5 5 6 5 3 2 2 3 4 6 6 5 6 11 14 6 2 5 6 7 7 7 7 6 5 4
3 4 4 4 4 2 5 5 0 6 5 3 4 5 10 6 2 -1 0 8 7 2 4 5 3 2 1 1 2 1 3 3 2 3 3 4 4 2 2 3 3 4 4 6 7 5 4 2 -0 8 14 14 12 7 6 6 7 8 5 4 3 3 2 3 3 4 4 4 4 4 5 6 5 5 5 2 1 2 3 4 6 6 5 6 10 16 10 3 4 5 6 7 7 8 8 7 6
3 3 4 4 5 4 5 6 2 5 6 5 5 4 9 13 7 -2 -4 4 8 4 2 4 4 4 1 1 1 0 2 2 2 2 2 3 2 2 3 3 5 4 5 6 5 5 5 1 3 15 16 11 10 7 5 6 7 7 6 4 3 3 3 3 3 3 4 3 4 5 5 6 5 5 4 2 1 2 2 4 6 6 5 5 7 13 14 5 3 5 6 7 7 7 8 9 8
3 3 3 2 4 5 4 6 4 5 6 5 6 5 5 12 14 4 -4 -2 4 4 2 3 4 5 3 1 0 -1 1 2 2 2 2 3 1 2 3 4 4 4 6 5 4 6 3 -1 8 19 14 9 9 6 5 6 6 7 7 5 4 4 3 3 3 3 3 4 5 4 5 6 5 4 3 1 1 1 2 3 5 6 5 5 4 7 13 10 4 4 6 6 6 7 7 8 9
1 1 3 1 3 4 3 5 4 5 5 6 6 4 4 8 12 11 4 -1 -1 3 3 2 3 4 3 1 1 0 1 2 3 3 2 2 2 4 4 5 5 6 6 3 4 4 -2 1 13 17 11 7 8 6 6 5 6 7 6 6 5 4 4 3 3 3 3 4 4 5 6 6 5 3 2 1 1 1 1 3 5 6 4 5 5 5 9 11 8 4 5 6 5 6 7 7 8
-0 1 3 -1 4 4 2 5 3 5 4 4 5 2 3 3 5 9 10 6 2 2 2 3 5 6 7 6 5 3 3 3 3 3 2 2 4 5 5 6 6 5 3 2 4 0 -3 6 15 15 11 8 7 6 6 6 6 7 7 6 5 4 4 4 3 3 3 4 5 6 6 6 5 3 3 2 2 1 1 2 3 5 5 5 6 5 6 10 11 8 5 5 5 5 6 7 7
-3 0 3 -4 4 5 -1 4 3 3 4 3 3 2 3 1 1 4 6 8 8 7 5 5 5 5 8 9 9 7 4 3 3 3 3 4 4 5 5 5 4 2 1 2 3 -1 -1 10 17 14 11 10 8 6 6 6 6 7 7 6 5 4 4 5 4 3 4 5 6 6 7 6 4 3 3 2 2 1 1 1 2 4 5 5 5 5 5 7 10 11 9 6 4 4 5 6 6
-3 -2 1 -6 0 5 -3 -1 2 2 3 3 1 -1 1 0 -1 -0 -0 -1 2 5 5 6 6 6 6 6 7 7 6 4 3 3 4 4 4 4 4 4 3 1 2 2 2 1 2 13 19 14 10 10 8 5 6 6 7 8 8 7 5 4 4 5 5 4 6 6 6 6 7 6 4 3 3 2 2 1 1 1 1 3 6 5 4 4 4 6 7 9 11 10 6 3 4 5 6
3 1 2 -1 -2 3 -1 -5 -2 0 0 2 1 -1 -3 -2 -2 -2 -3 -3 -3 -3 -2 1 3 4 4 5 6 6 6 4 3 3 3 3 3 3 3 4 2 1 1 0 1 2 6 16 19 14 10 7 6 5 6 6 6 7 7 7 5 5 5 5 6 6 7 7 7 6 6 5 3 2 2 3 2 1 1 1 1 3 6 6 4 4 5 6 7 7 8 12 10 4 2 3 5
7 6 5 5 4 4 4 -1 -2 -1 -2 -3 -3 -2 -4 -5 -5 -5 -5 -3 -1 -1 -2 -2 -2 -1 0 2 4 6 5 3 3 3 3 3 3 4 3 2 1 1 1 -1 1 3 10 19 19 15 8 5 6 5 5 5 6 6 7 6 6 6 5 5 6 6 6 7 7 6 5 4 3 2 3 3 2 1 1 1 2 4 7 7 4 3 5 7 7 8 7 9 11 8 3 3 4
10 11 8 8 8 8 9 7 6 5 4 1 -2 -1 -0 -1 -1 -1 -0 1 3 3 3 1 1 1 2 2 -0 1 3 3 2 1 2 3 3 2 2 2 1 0 -1 -0 2 6 14 20 19 13 6 6 7 5 5 5 6 6 6 7 6 7 7 7 7 6 7 6 6 6 5 4 3 3 4 3 2 1 0 1 3 5 8 9 4 1 4 7 7 9 10 8 9 9 6 4 4
13 12 13 12 11 10 11 11 11 11 11 11 10 10 10 11 12 12 12 12 11 10 10 9 7 6 8 11 6 1 -1 0 1 0 1 0 1 0 1 1 0 0 0 2 4 10 18 21 17 10 6 7 5 5 6 7 8 7 7 8 7 8 8 9 7 6 7 6 5 5 5 5 3 4 3 1 1 1 1 2 5 7 10 9 4 1 3 6 7 7 10 10 9 9 8 6 6
10 10 11 14 13 12 13 12 13 11 11 13 14 16 17 17 18 18 18 19 18 17 17 16 14 11 10 12 11 7 2 -0 0 0 0 -0 0 0 1 1 1 1 2 3 6 15 22 20 13 8 6 6 6 9 10 9 8 8 8 8 8 9 9 9 8 6 6 5 5 5 6 4 2 2 2 2 2 3 3 4 6 9 11 9 3 2 4 5 7 7 8 10 10 10 11 10 9
5 7 8 10 10 10 11 12 14 13 14 15 14 15 16 16 16 16 17 18 19 18 17 16 16 14 11 10 10 10 7 3 2 1 1 1 1 2 1 1 1 1 2 5 11 20 23 17 10 7 5 7 11 11 8 6 6 6 6 7 7 7 8 9 8 7 6 5 5 5 4 2 1 3 4 4 4 3 3 4 8 11 12 8 2 2 3 4 6 7 7 8 9 10 10 11 9
3 3 5 7 6 7 7 8 11 11 12 12 11 12 12 12 12 12 13 15 16 15 15 14 15 15 14 14 12 11 10 6 4 2 2 2 1 1 1 1 1 1 4 10 18 24 21 13 8 6 7 9 8 4 3 4 4 4 5 6 7 7 7 7 7 7 7 7 6 5 3 3 4 6 6 6 5 4 5 7 10 12 10 5 2 2 3 4 6 6 7 7 8 9 9 9 8
10 4 3 4 5 6 7 7 7 6 8 8 7 8 8 9 9 9 10 11 12 13 13 12 13 16 16 16 15 14 13 9 7 4 3 2 1 1 1 2 4 6 11 16 21 22 17 11 8 7 8 7 1 -2 2 4 4 4 4 5 6 6 6 6 6 7 9 9 7 6 5 5 6 6 6 6 6 6 7 10 12 9 6 3 2 2 3 4 5 7 7 6 7 7 5 5 5
18 14 8 5 4 5 7 7 8 7 7 7 6 6 6 8 8 8 8 8 9 10 11 11 11 13 13 13 15 16 15 13 12 10 8 6 6 6 5 7 8 12 17 18 20 19 13 9 7 7 7 2 -5 -2 4 4 4 3 4 5 6 6 6 7 8 8 10 10 7 7 6 6 6 6 6 7 7 8 10 13 11 6 3 4 3 2 4 4 5 7 8 7 5 3 0 -1 2
17 19 18 14 6 2 3 8 11 8 7 6 5 5 6 6 7 8 7 6 7 7 8 9 10 11 12 12 13 15 16 15 15 14 14 12 11 10 9 10 12 16 17 16 17 18 12 7 7 7 5 -1 -4 1 5 5 3 3 5 6 7 8 8 10 10 9 10 9 7 7 7 6 6 7 8 8 8 9 12 14 9 3 3 5 3 3 4 4 5 6 9 9 6 2 -1 -2 2
12 14 19 22 17 9 4 5 8 8 8 7 6 5 5 6 7 7 7 6 6 6 6 5 7 8 10 12 12 13 14 13 13 12 12 11 10 10 11 12 15 16 14 15 17 16 10 6 6 5 4 1 -0 4 6 4 3 4 6 7 9 9 9 10 10 10 10 8 7 6 6 7 7 8 9 8 8 10 12 12 7 2 3 4 3 3 3 3 6 6 8 11 10 5 2 2 3
9 9 14 19 21 21 12 3 3 7 9 8 7 7 5 5 6 6 7 6 5 6 6 4 5 6 7 10 11 11 11 10 9 10 10 10 9 10 12 13 14 13 12 16 18 13 8 5 6 6 5 2 1 5 5 2 3 6 7 8 8 7 7 8 8 9 9 8 7 7 7 7 8 8 8 7 7 10 12 10 6 4 4 4 2 3 3 4 9 9 8 10 11 9 6 6 6
7 7 10 12 16 22 19 11 5 3 7 9 9 8 6 6 6 6 6 6 6 6 6 5 5 6 6 6 7 8 8 8 9 9 9 9 9 9 12 13 11 11 13 17 15 9 5 5 7 7 5 1 1 5 4 2 2 5 6 7 7 6 6 7 7 8 8 8 7 7 8 8 8 8 7 7 7 9 10 9 7 6 5 4 3 4 4 7 11 10 8 10 11 10 8 7 7
6 5 7 9 13 17 17 18 13 6 5 8 9 9 8 7 6 6 6 6 6 5 5 6 6 6 7 6 6 6 7 8 9 9 9 9 9 10 13 12 10 11 15 17 13 6 4 6 6 4 3 1 2 6 4 2 2 3 5 6 6 6 7 7 8 9 8 7 7 7 7 7 7 7 7 7 8 7 8 7 7 6 5 5 5 5 6 8 11 10 8 10 10 8 8 7 7
5 4 5 7 10 15 15 14 16 13 7 7 8 9 10 8 7 7 6 6 6 6 4 5 6 7 9 9 8 8 9 12 11 8 9 10 10 12 14 10 9 12 14 14 12 6 4 6 4 3 3 2 4 7 4 1 2 2 3 4 4 5 7 8 8 8 8 6 6 7 7 7 7 8 8 8 8 7 7 7 6 6 6 7 6 6 6 7 9 9 8 10 10 8 8 8 8
5 4 5 6 8 12 14 12 14 14 10 8 8 9 11 10 8 8 7 6 6 6 5 5 5 7 8 9 8 8 9 12 12 9 9 9 10 13 11 6 9 12 12 12 11 8 6 6 5 5 5 4 7 7 3 1 2 1 1 2 2 3 5 7 8 8 8 7 7 8 7 8 8 8 7 8 8 8 8 7 7 7 7 8 7 8 8 9 9 8 8 9 11 10 10 10 9
4 4 5 5 7 8 11 14 13 12 10 9 9 9 10 10 10 9 8 8 6 6 6 5 5 6 6 6 7 6 5 7 7 7 9 9 10 10 6 6 10 11 12 12 9 8 6 6 7 8 6 6 8 6 2 2 2 1 1 2 1 2 4 5 7 9 10 10 8 8 8 8 9 8 7 7 8 8 8 7 8 8 8 9 11 12 11 11 9 7 7 9 9 9 9 9 8
3 5 6 4 6 7 9 14 13 11 9 8 9 10 9 9 9 9 8 8 7 6 6 6 6 6 5 5 6 6 4 4 4 6 8 9 9 8 5 6 10 11 11 12 9 6 5 6 7 8 6 6 7 6 3 2 2 2 1 1 1 2 3 4 7 9 10 11 10 9 9 9 8 8 7 7 7 7 8 9 9 8 9 11 11 12 11 9 8 7 7 7 7 6 5 6 6
3 5 7 5 5 6 9 13 14 13 9 6 6 8 9 9 9 8 8 8 7 6 5 5 5 5 5 5 5 4 3 3 4 5 8 8 7 6 5 7 12 12 10 11 10 7 5 7 8 7 5 6 7 4 2 3 2 2 1 0 0 1 1 4 7 8 9 9 10 10 9 8 7 7 6 6 7 7 9 9 8 7 7 8 8 8 8 7 7 7 7 6 6 5 6 7 7
3 5 5 6 6 5 9 12 14 15 10 5 4 6 8 7 9 8 8 10 8 7 6 5 5 3 4 6 5 4 4 3 4 6 8 7 8 11 12 13 15 14 11 10 9 7 7 7 7 7 6 7 7 4 2 3 3 2 2 1 0 1 1 3 6 7 8 9 9 9 8 7 5 5 6 6 8 9 10 9 7 5 4 6 8 8 7 6 6 6 7 7 7 7 8 9 8
4 5 4 5 6 5 9 11 13 17 12 6 4 5 8 8 8 8 8 10 9 7 6 6 5 3 4 6 5 4 4 4 5 7 9 10 12 14 15 14 13 12 10 8 6 6 6 6 6 7 7 7 5 4 4 3 4 3 2 2 1 1 1 3 6 7 8 8 8 7 6 5 5 6 7 8 8 8 9 9 5 1 0 4 7 9 8 7 7 7 7 8 8 8 10 10 10
5 5 5 4 5 5 9 9 12 19 13 7 4 3 8 9 7 8 7 9 10 8 6 6 5 5 6 6 5 5 4 4 6 9 10 11 10 10 12 13 11 10 9 8 8 7 6 5 6 7 7 8 6 5 5 3 4 4 2 3 2 1 2 3 5 6 7 7 7 7 6 5 6 7 8 8 8 9 9 9 5 -1 -3 0 5 9 8 7 7 7 7 8 9 9 9 9 9
6 5 5 5 4 4 8 8 11 19 14 8 5 0 6 10 8 7 7 8 11 9 7 6 6 6 6 6 6 5 4 4 7 11 11 10 10 11 13 12 8 8 10 13 14 10 7 6 6 8 8 8 7 5 4 4 3 4 3 3 3 2 3 4 5 6 6 7 7 7 6 5 6 7 8 9 8 9 10 9 5 -1 -5 -0 4 8 8 7 7 7 7 8 7 7 7 7 7
6 5 5 5 5 4 7 9 11 18 15 10 6 0 3 9 7 6 8 9 10 10 9 7 8 7 7 6 4 4 5 6 7 10 12 10 8 10 12 8 5 5 8 12 15 11 8 7 7 7 8 6 6 5 3 3 3 4 4 3 3 3 3 4 4 5 6 7 7 6 6 6 7 8 7 8 8 8 8 9 7 2 0 3 4 7 9 7 7 7 6 6 5 5 6 6 7
6 4 4 5 5 4 6 9 10 15 17 14 9 0 0 6 5 4 6 8 9 9 9 9 9 8 8 6 4 5 5 5 9 12 12 8 6 11 12 6 2 1 4 9 11 12 8 7 8 6 6 5 4 5 4 3 3 4 4 3 3 3 4 3 3 5 7 8 7 6 5 6 7 8 7 7 8 7 7 8 8 7 6 5 4 7 9 7 7 7 5 5 5 6 7 8 9
6 5 4 5 6 5 5 8 9 12 16 16 12 4 1 3 4 4 5 6 8 7 7 9 9 8 8 7 5 5 5 7 10 9 6 4 9 20 16 7 7 4 3 8 8 10 9 6 7 6 5 6 5 5 5 3 3 4 5 4 3 3 4 4 4 5 7 7 7 6 5 6 7 7 7 7 8 8 8 7 7 7 6 4 6 9 8 7 7 6 5 6 6 8 8 9 10
6 6 5 5 7 7 5 6 7 10 14 15 15 11 4 3 4 4 5 5 5 6 7 7 8 9 7 6 5 5 8 7 3 2 3 5 10 20 19 10 15 12 1 5 9 8 9 7 6 6 6 6 6 6 5 4 4 6 6 5 3 4 4 4 3 4 6 8 7 6 5 6 6 6 6 7 8 8 8 8 7 5 5 6 8 10 7 7 7 6 6 6 6 8 8 8 8
6 6 5 5 7 7 6 7 7 8 12 14 17 16 7 4 5 3 4 5 5 5 7 8 8 9 6 7 8 7 8 4 2 4 3 9 11 10 18 17 16 16 3 0 8 8 9 9 7 7 7 7 6 5 6 5 6 7 7 5 4 4 4 3 3 4 6 8 7 6 6 6 6 6 7 7 8 8 8 9 9 8 8 9 9 9 8 7 6 6 5 5 6 7 7 7 7
6 6 7 6 6 7 6 6 5 6 11 11 15 19 11 6 6 5 4 3 6 5 3 8 9 7 6 7 7 7 6 2 5 8 3 16 18 2 12 20 13 15 8 1 6 8 9 9 9 9 7 7 6 5 6 6 7 8 5 5 4 3 4 3 3 5 5 6 6 6 6 6 6 6 7 8 9 10 10 10 10 10 9 8 8 9 8 7 6 5 5 5 5 6 7 7 7
6 6 7 5 6 8 5 5 4 5 10 8 11 20 15 10 7 5 5 2 5 5 2 7 6 4 8 8 7 6 6 6 8 8 5 16 23 17 22 17 5 9 9 6 7 7 8 8 9 9 8 7 6 6 6 6 7 7 5 4 4 3 4 4 4 4 4 5 5 5 6 6 6 8 8 9 10 10 10 10 9 8 8 8 9 9 8 6 5 4 4 4 4 5 6 7 9
6 6 7 5 6 7 5 6 4 4 8 5 9 18 14 14 11 7 8 4 3 4 3 6 3 4 9 8 8 5 5 8 4 3 9 11 16 26 27 8 -5 3 8 6 6 6 5 4 5 6 6 7 7 7 7 6 6 6 4 3 4 4 4 4 4 3 3 4 4 5 6 6 7 8 9 10 10 10 9 9 8 8 8 9 9 9 7 5 4 4 3 4 4 4 5 6 9
6 5 7 6 6 7 7 7 4 4 7 2 6 13 10 15 16 10 11 7 3 5 2 3 4 3 3 1 2 3 3 6 1 2 14 13 7 17 21 4 -12 -7 5 9 8 4 -3 -3 2 3 6 7 6 7 6 5 7 5 3 3 3 4 4 4 4 3 4 4 3 4 5 5 7 8 9 10 10 10 9 9 9 9 9 9 9 8 6 4 4 4 2 3 4 4 4 5 7
7 5 6 6 5 7 8 6 3 3 6 3 5 8 6 12 16 11 14 11 8 8 4 4 5 2 2 1 0 3 4 6 2 4 16 15 11 19 15 -2 -7 4 15 14 11 5 -5 -5 0 -0 3 4 3 6 4 4 8 7 3 4 4 4 5 5 4 3 3 3 2 3 4 4 6 7 8 10 12 11 10 9 9 9 10 10 9 8 6 4 4 3 2 2 4 4 3 4 6
8 7 6 7 5 6 8 7 5 4 8 7 5 7 7 10 14 12 15 14 10 11 9 8 6 4 7 5 3 5 5 6 1 3 16 16 15 23 6 -9 7 23 21 15 10 7 1 -1 2 3 4 4 4 6 5 3 7 7 3 4 4 4 5 6 5 3 2 3 3 3 4 4 5 7 9 11 12 11 9 9 9 10 10 10 9 8 6 4 3 3 2 2 3 5 4 3 4
9 8 7 9 7 7 8 7 5 6 8 7 3 4 4 5 10 12 14 14 13 13 11 11 10 8 8 5 5 7 4 5 5 4 11 11 13 17 -2 -10 4 6 7 14 10 9 7 2 4 7 4 5 7 7 7 6 6 7 5 5 5 4 6 6 5 4 2 4 5 4 4 5 6 7 8 10 10 9 8 8 9 9 11 10 9 8 6 4 4 2 2 2 2 4 5 4 3
8 7 7 9 8 8 8 7 7 8 7 5 4 4 1 2 8 10 11 13 14 14 12 10 9 8 9 5 4 7 6 6 6 3 6 11 12 6 -2 4 6 -3 7 17 8 8 10 4 6 8 3 4 7 7 7 7 6 7 6 5 6 6 7 6 4 5 5 5 6 6 5 5 5 5 6 8 8 9 9 8 8 8 9 10 9 8 7 5 5 3 2 2 2 4 5 6 4
8 8 8 7 8 8 7 6 6 9 9 4 5 6 2 3 5 6 8 9 10 13 13 10 8 8 8 6 5 9 10 9 7 3 5 10 9 10 21 23 8 4 16 16 7 7 7 4 6 6 4 6 8 8 8 6 6 6 6 6 7 7 7 6 5 5 6 6 6 6 7 6 5 5 6 8 8 8 8 7 7 7 7 8 8 8 7 6 6 5 4 3 3 4 5 6 6
9 11 9 6 7 6 6 5 3 9 10 3 5 5 1 3 5 5 5 6 6 10 14 12 9 9 6 6 9 9 10 13 11 4 3 8 10 17 21 5 -4 11 19 11 7 6 5 7 7 6 7 8 8 8 7 6 6 5 6 6 6 7 7 6 6 7 7 7 7 7 7 6 6 6 7 8 8 8 9 8 8 8 7 7 7 7 7 8 7 6 5 5 4 4 5 6 7
9 12 11 8 8 7 6 6 3 8 6 -0 4 6 2 2 5 7 4 2 4 6 11 12 10 10 7 6 7 6 9 15 13 5 3 9 14 16 2 -17 -4 20 17 8 9 7 5 7 7 8 9 8 8 8 7 7 6 5 6 7 7 7 7 7 6 7 7 7 7 7 6 6 6 6 6 7 8 9 9 9 9 8 8 7 7 7 7 8 8 7 7 6 6 6 6 7 7
7 8 9 7 7 7 6 5 5 6 4 -0 4 8 4 -0 2 8 4 1 3 3 5 8 9 10 9 9 9 7 9 12 13 9 6 8 14 17 0 -16 -0 17 13 12 12 8 7 6 6 7 7 7 7 7 6 5 5 6 6 6 8 7 6 7 6 6 7 7 7 7 6 7 6 6 6 6 8 9 9 10 10 9 9 8 7 7 7 8 7 7 7 7 7 7 7 7 7
5 6 7 6 7 7 5 6 6 5 5 4 3 5 4 -0 4 8 3 1 4 3 2 4 7 9 8 10 11 10 9 9 10 8 7 11 16 19 3 -13 0 12 10 12 12 10 11 8 7 6 5 7 7 6 6 6 6 7 8 8 8 8 6 6 6 5 7 7 7 7 6 7 6 5 6 6 6 7 8 10 10 11 10 9 8 7 7 7 7 7 7 8 8 8 8 8 7
8 8 9 7 9 9 6 8 8 5 8 8 3 4 3 1 6 7 0 1 5 4 4 4 4 5 6 7 10 14 13 8 7 6 8 12 19 21 3 -9 7 13 8 12 14 13 13 11 11 9 7 7 6 7 7 7 9 9 10 9 6 6 6 5 6 5 6 7 7 7 6 6 6 6 6 6 6 6 6 8 9 10 11 10 10 9 8 7 6 6 6 7 8 9 10 10 9
10 8 7 5 7 8 5 7 8 3 6 8 3 2 3 1 5 4 -1 1 4 4 6 6 6 6 6 7 10 15 14 9 8 7 7 13 23 19 -4 -7 15 18 8 8 6 6 9 10 11 9 8 8 6 8 7 5 7 7 7 6 4 5 5 5 6 6 6 7 7 7 6 5 5 5 5 5 4 4 4 5 6 7 8 9 10 10 10 10 8 8 7 6 7 8 8 9 9
12 10 8 7 8 9 6 6 8 5 7 10 6 4 5 3 3 3 1 2 3 4 6 5 7 8 8 8 9 10 12 13 12 10 9 15 20 11 -4 5 19 11 3 4 2 5 7 5 8 8 7 9 8 8 7 4 3 6 7 6 4 5 5 6 6 5 6 6 6 6 5 5 5 5 5 4 3 3 3 4 5 5 5 5 6 7 8 10 11 11 10 9 8 7 7 6 6
10 10 9 8 5 6 5 4 7 8 8 10 7 4 6 5 4 3 1 2 3 4 7 6 6 7 8 10 9 8 12 14 15 15 12 11 14 12 10 16 18 7 1 3 4 6 7 4 5 7 6 7 8 8 9 7 5 5 6 6 6 5 5 6 5 5 5 5 5 6 4 5 5 5 4 4 4 4 3 5 6 6 6 6 5 6 5 6 8 9 10 11 11 10 9 8 7
7 8 9 8 5 6 7 4 5 6 6 10 8 4 5 6 5 5 3 2 4 4 5 7 8 7 8 11 9 8 10 10 11 13 12 15 18 15 9 8 13 9 -5 -5 4 7 8 7 5 7 8 6 7 9 11 11 8 7 6 6 6 6 6 6 5 4 4 4 4 4 4 5 5 4 3 3 5 6 6 7 7 6 7 7 7 7 7 6 6 7 8 9 10 11 11 11 11
6 8 8 8 6 8 11 9 6 6 5 7 9 5 5 6 4 5 6 5 4 5 6 7 8 7 8 11 10 8 6 6 9 9 16 32 26 8 4 6 10 9 -5 -6 6 6 5 7 6 7 8 6 7 8 8 11 11 9 7 6 6 6 5 4 4 3 4 4 4 3 5 5 4 3 3 4 7 7 8 7 6 6 5 6 7 7 8 8 8 8 7 7 7 8 9 10 11
7 8 8 8 6 5 8 10 8 8 6 7 9 7 7 11 6 2 6 7 5 6 7 7 8 8 8 10 11 9 5 6 10 5 10 34 33 8 4 9 3 1 2 4 7 6 5 4 2 6 7 7 9 9 8 10 11 10 9 8 7 5 4 3 3 4 4 4 3 3 4 4 3 4 4 6 7 7 8 7 6 6 6 6 7 7 7 7 8 8 8 7 7 7 7 8 8
10 9 9 10 10 6 5 7 7 8 7 7 8 6 7 14 12 5 5 7 8 9 8 6 7 8 10 13 12 9 4 3 10 7 2 20 36 20 3 5 5 2 3 4 4 7 9 6 7 9 7 6 8 8 9 8 8 9 9 9 8 5 4 2 2 4 4 3 3 4 4 4 3 4 5 7 6 6 7 7 7 7 7 7 7 7 8 7 8 9 9 9 9 8 8 7 7
Height
5871 5872 5874 5875 5876 5878 5879 5882 5883 5882 5885 5886 5887 5888 5888 5889 5888 5888 5888 5887 5887 5888 5888 5889 5890 5890 5891 5891 5892 5893 5892 5892 5891 5891 5892 5891 5892 5892 5892 5892 5892 5892 5892 5892 5891 5890 5889 5888 5888 5887 5886 5885 5884 5883 5882 5881 5880 5880 5879 5879 5879 5879 5878 5878 5877 5877 5876 5875 5875 5874 5873 5872 5872 5871 5869 5868 5867 5865 5865 5863 5862 5861 5860 5859 5858 5857 5856 5855 5854 5853 5852 5852 5851 5851 5850 5849 5849
5869 5870 5872 5873 5874 5876 5876 5879 5880 5880 5883 5883 5885 5887 5887 5887 5887 5886 5884 5883 5886 5886 5887 5887 5888 5889 5889 5890 5891 5891 5891 5891 5890 5890 5890 5890 5891 5891 5891 5891 5891 5891 5891 5891 5890 5889 5889 5888 5887 5886 5885 5884 5883 5882 5881 5880 5879 5879 5879 5879 5878 5878 5878 5878 5877 5877 5876 5875 5874 5874 5873 5872 5871 5870 5869 5868 5867 5866 5865 5864 5862 5861 5860 5859 5858 5857 5856 5855 5854 5853 5853 5852 5851 5850 5850 5849 5849
5867 5868 5870 5871 5872 5874 5874 5876 5877 5877 5879 5881 5883 5885 5885 5885 5884 5883 5881 5881 5884 5885 5885 5885 5886 5887 5888 5889 5889 5890 5889 5889 5889 5889 5889 5889 5890 5891 5891 5890 5890 5890 5890 5890 5889 5889 5888 5888 5887 5885 5884 5883 5882 5881 5880 5879 5879 5878 5878 5878 5878 5878 5878 5877 5877 5876 5875 5875 5874 5873 5873 5872 5871 5870 5869 5868 5867 5866 5865 5864 5862 5861 5860 5859 5858 5857 5856 5855 5854 5853 5853 5852 5851 5850 5849 5849 5848
5864 5866 5867 5869 5869 5871 5871 5873 5874 5874 5876 5878 5880 5883 5882 5881 5881 5880 5879 5880 5881 5882 5883 5883 5884 5885 5886 5887 5887 5888 5888 5888 5888 5888 5887 5887 5888 5889 5890 5890 5889 5889 5889 5889 5889 5888 5887 5887 5886 5884 5883 5882 5881 5881 5880 5879 5878 5877 5877 5877 5877 5877 5877 5877 5876 5875 5875 5874 5874 5873 5873 5872 5871 5870 5869 5868 5867 5865 5864 5864 5862 5861 5860 5859 5858 5857 5856 5855 5854 5853 5852 5851 5851 5850 5849 5849 5848
5861 5863 5864 5866 5866 5867 5869 5869 5871 5871 5873 5876 5878 5880 5879 5878 5878 5878 5878 5878 5878 5879 5880 5881 5882 5883 5884 5885 5886 5886 5886 5886 5886 5886 5886 5886 5887 5888 5889 5889 5888 5888 5888 5888 5888 5887 5886 5886 5884 5883 5882 5881 5881 5880 5879 5878 5877 5877 5877 5876 5877 5877 5876 5876 5875 5875 5874 5874 5873 5873 5872 5871 5870 5869 5868 5867 5867 5865 5864 5863 5862 5861 5860 5859 5858 5856 5855 5855 5854 5853 5852 5851 5851 5850 5849 5849 5848
5858 5860 5861 5863 5862 5863 5865 5865 5867 5869 5871 5873 5874 5878 5877 5876 5876 5876 5876 5876 5876 5877 5878 5879 5880 5881 5882 5883 5884 5884 5885 5885 5884 5884 5884 5884 5886 5887 5887 5887 5887 5887 5886 5886 5886 5886 5885 5884 5883 5882 5881 5880 5880 5879 5878 5877 5877 5876 5876 5876 5876 5876 5875 5875 5875 5874 5874 5873 5873 5872 5872 5871 5870 5869 5868 5867 5867 5865 5864 5863 5862 5861 5860 5859 5858 5856 5855 5854 5854 5853 5852 5851 5850 5850 5849 5849 5848
5855 5856 5857 5859 5859 5859 5861 5861 5864 5866 5869 5870 5871 5875 5876 5873 5873 5873 5873 5874 5874 5875 5877 5878 5880 5880 5880 5882 5883 5883 5883 5883 5883 5882 5882 5883 5884 5885 5886 5886 5886 5885 5885 5885 5885 5885 5884 5883 5882 5881 5880 5879 5879 5878 5877 5877 5876 5876 5876 5875 5875 5875 5875 5874 5874 5874 5873 5873 5872 5872 5871 5870 5869 5868 5867 5867 5866 5865 5864 5863 5862 5861 5860 5859 5858 5856 5855 5854 5853 5853 5852 5851 5850 5849 5849 5849 5848
5852 5853 5853 5857 5855 5855 5858 5858 5860 5864 5865 5867 5869 5872 5873 5871 5869 5870 5871 5872 5873 5873 5876 5876 5878 5878 5878 5880 5881 5881 5882 5881 5881 5880 5880 5881 5882 5883 5884 5884 5884 5884 5884 5884 5884 5883 5883 5882 5881 5880 5879 5878 5878 5877 5877 5876 5876 5875 5875 5874 5874 5874 5874 5874 5873 5873 5872 5872 5871 5871 5870 5869 5868 5867 5867 5866 5866 5865 5864 5863 5862 5861 5860 5859 5858 5857 5855 5854 5853 5852 5852 5851 5850 5849 5848 5848 5848
5849 5850 5850 5853 5852 5851 5854 5855 5857 5861 5862 5865 5867 5868 5871 5869 5866 5867 5868 5869 5870 5872 5874 5874 5875 5877 5876 5878 5879 5879 5880 5879 5879 5878 5878 5879 5880 5882 5882 5882 5882 5882 5882 5882 5882 5882 5881 5880 5879 5879 5878 5877 5877 5876 5876 5876 5875 5875 5874 5873 5873 5873 5873 5873 5872 5872 5871 5871 5870 5869 5869 5868 5867 5867 5866 5866 5865 5864 5863 5863 5862 5861 5860 5859 5858 5857 5855 5854 5853 5852 5852 5851 5850 5849 5848 5848 5847
5844 5846 5846 5848 5850 5848 5850 5853 5855 5857 5859 5862 5864 5864 5867 5865 5863 5864 5865 5866 5868 5869 5871 5871 5873 5875 5874 5876 5877 5877 5878 5877 5877 5876 5877 5878 5879 5880 5880 5880 5880 5880 5880 5881 5880 5880 5879 5879 5878 5877 5877 5877 5876 5876 5876 5875 5874 5873 5873 5872 5872 5871 5871 5871 5871 5871 5870 5870 5869 5868 5868 5867 5867 5866 5865 5865 5865 5864 5863 5862 5861 5860 5859 5858 5857 5856 5855 5854 5853 5852 5851 5851 5850 5849 5848 5848 5847
5839 5841 5843 5844 5846 5845 5847 5850 5852 5853 5856 5859 5860 5861 5862 5860 5860 5862 5863 5864 5865 5865 5867 5869 5871 5872 5873 5874 5874 5875 5875 5875 5874 5875 5875 5876 5877 5878 5878 5878 5878 5878 5879 5879 5879 5878 5878 5877 5876 5876 5876 5876 5875 5875 5874 5874 5873 5872 5871 5871 5870 5870 5870 5870 5870 5870 5869 5868 5868 5867 5867 5866 5866 5865 5865 5864 5864 5864 5863 5862 5861 5860 5859 5858 5857 5856 5855 5854 5853 5852 5851 5850 5849 5849 5848 5847 5847
5835 5836 5839 5840 5841 5843 5845 5846 5847 5848 5852 5856 5856 5857 5856 5856 5856 5859 5861 5861 5862 5862 5863 5866 5867 5869 5870 5870 5871 5873 5873 5872 5872 5873 5873 5874 5874 5875 5876 5876 5876 5876 5877 5877 5877 5876 5876 5875 5875 5875 5875 5874 5874 5874 5873 5872 5872 5871 5870 5870 5869 5869 5869 5869 5869 5868 5868 5867 5867 5866 5866 5865 5865 5864 5864 5864 5863 5863 5862 5862 5861 5860 5859 5858 5857 5856 5855 5854 5853 5852 5851 5850 5849 5848 5847 5847 5846
5831 5832 5835 5836 5837 5839 5841 5842 5844 5846 5849 5851 5851 5851 5851 5853 5853 5855 5857 5858 5859 5859 5861 5862 5863 5865 5865 5865 5868 5870 5870 5869 5870 5871 5871 5871 5872 5873 5873 5874 5874 5875 5875 5875 5875 5875 5874 5874 5873 5873 5873 5873 5873 5872 5872 5871 5870 5870 5869 5869 5868 5868 5868 5868 5868 5867 5866 5866 5865 5865 5865 5864 5864 5864 5863 5863 5863 5862 5862 5861 5860 5859 5858 5857 5856 5855 5854 5853 5852 5851 5851 5850 5849 5848 5847 5846 5846
5828 5828 5831 5832 5833 5835 5837 5840 5842 5844 5846 5846 5845 5846 5848 5850 5850 5851 5853 5856 5856 5856 5857 5858 5859 5861 5861 5862 5865 5867 5867 5867 5868 5868 5868 5869 5870 5870 5871 5871 5872 5873 5873 5873 5873 5873 5872 5872 5872 5872 5872 5872 5871 5871 5870 5870 5869 5869 5868 5868 5867 5867 5867 5867 5866 5866 5865 5865 5864 5864 5864 5863 5863 5863 5862 5862 5862 5861 5861 5860 5859 5858 5858 5857 5856 5855 5854 5853 5852 5851 5850 5849 5849 5848 5847 5846 5845
5824 5825 5827 5828 5829 5832 5834 5837 5839 5841 5841 5839 5841 5843 5845 5846 5848 5848 5849 5852 5853 5853 5854 5855 5855 5856 5858 5860 5861 5863 5864 5865 5866 5866 5866 5867 5867 5867 5868 5869 5869 5870 5871 5871 5871 5871 5871 5870 5870 5870 5870 5870 5870 5870 5869 5869 5868 5868 5867 5867 5866 5866 5866 5866 5865 5865 5864 5863 5863 5863 5863 5862 5862 5862 5861 5861 5861 5860 5860 5859 5859 5858 5857 5857 5856 5855 5854 5853 5852 5851 5849 5849 5848 5848 5847 5846 5845
5820 5821 5823 5824 5826 5829 5832 5835 5836 5838 5835 5835 5838 5840 5842 5843 5845 5846 5846 5849 5850 5850 5851 5851 5852 5853 5856 5858 5858 5859 5860 5861 5862 5863 5864 5864 5865 5865 5865 5866 5867 5868 5869 5869 5869 5869 5869 5869 5869 5869 5869 5869 5869 5868 5868 5868 5867 5867 5866 5866 5865 5865 5865 5864 5864 5863 5863 5862 5862 5862 5862 5861 5861 5861 5860 5860 5860 5859 5859 5858 5858 5857 5857 5856 5856 5855 5853 5852 5851 5850 5849 5848 5847 5847 5847 5846 5845
5816 5817 5818 5821 5823 5826 5829 5832 5833 5833 5831 5832 5836 5837 5839 5841 5842 5843 5844 5846 5847 5848 5848 5848 5850 5851 5853 5854 5854 5856 5857 5858 5859 5861 5862 5863 5863 5862 5863 5864 5865 5867 5867 5868 5868 5867 5867 5867 5867 5867 5868 5868 5868 5867 5867 5867 5866 5866 5865 5865 5864 5864 5864 5863 5863 5862 5862 5862 5862 5861 5861 5861 5860 5860 5859 5859 5859 5858 5858 5857 5857 5857 5856 5856 5855 5854 5853 5852 5851 5850 5849 5848 5847 5846 5846 5845 5845
5811 5813 5815 5817 5820 5823 5826 5827 5828 5828 5827 5829 5832 5834 5836 5838 5840 5841 5842 5843 5844 5845 5846 5846 5847 5849 5850 5850 5851 5853 5854 5856 5857 5858 5860 5861 5860 5860 5861 5862 5863 5865 5866 5866 5866 5866 5865 5865 5866 5866 5867 5866 5866 5866 5866 5865 5865 5864 5864 5864 5863 5863 5862 5862 5862 5861 5861 5861 5861 5860 5860 5860 5860 5859 5858 5857 5857 5857 5857 5856 5856 5856 5856 5855 5855 5854 5853 5852 5851 5850 5849 5847 5846 5845 5845 5844 5844
5808 5809 5811 5813 5817 5818 5821 5823 5824 5824 5824 5827 5829 5831 5833 5835 5838 5839 5840 5841 5842 5843 5844 5845 5846 5847 5847 5848 5849 5851 5852 5854 5855 5857 5858 5858 5858 5858 5859 5861 5862 5863 5864 5864 5864 5864 5864 5864 5864 5865 5865 5865 5865 5865 5865 5864 5864 5863 5863 5863 5862 5862 5861 5861 5861 5861 5860 5860 5860 5860 5859 5859 5858 5858 5857 5856 5856 5855 5855 5855 5855 5855 5855 5854 5854 5853 5853 5852 5851 5850 5849 5847 5846 5845 5844 5843 5843
5804 5806 5807 5810 5812 5813 5817 5819 5819 5820 5821 5823 5826 5828 5830 5832 5835 5837 5837 5838 5840 5841 5841 5842 5843 5844 5845 5846 5847 5849 5850 5852 5853 5854 5855 5856 5856 5857 5858 5859 5861 5862 5862 5862 5862 5862 5863 5863 5863 5863 5864 5864 5864 5864 5863 5863 5863 5862 5862 5862 5861 5861 5861 5861 5860 5860 5860 5859 5859 5859 5858 5858 5857 5856 5856 5856 5855 5854 5854 5854 5854 5854 5853 5853 5853 5853 5852 5851 5851 5850 5849 5847 5846 5844 5843 5842 5841
5801 5803 5805 5807 5807 5809 5813 5814 5815 5817 5818 5820 5822 5825 5827 5829 5832 5834 5835 5836 5838 5838 5839 5840 5840 5842 5842 5843 5845 5846 5848 5849 5850 5852 5853 5854 5854 5855 5857 5858 5859 5859 5860 5860 5861 5861 5861 5861 5861 5862 5862 5862 5863 5862 5862 5862 5862 5862 5861 5861 5860 5860 5860 5860 5859 5859 5859 5859 5858 5858 5857 5857 5856 5855 5855 5854 5854 5853 5853 5852 5852 5852 5852 5852 5852 5852 5851 5851 5850 5849 5848 5847 5845 5844 5842 5841 5840
5798 5800 5802 5802 5804 5806 5808 5810 5812 5814 5815 5817 5819 5821 5823 5826 5829 5830 5832 5834 5834 5834 5836 5837 5838 5840 5840 5841 5842 5844 5845 5847 5848 5849 5851 5852 5852 5853 5855 5856 5857 5857 5858 5858 5859 5859 5859 5860 5860 5860 5861 5861 5861 5861 5861 5861 5861 5861 5860 5860 5859 5859 5859 5859 5858 5858 5858 5858 5857 5857 5856 5856 5855 5854 5854 5853 5853 5853 5852 5851 5851 5851 5851 5851 5851 5850 5850 5850 5849 5848 5847 5846 5845 5844 5842 5840 5838
5794 5797 5798 5799 5801 5802 5804 5806 5808 5810 5812 5813 5815 5818 5821 5823 5826 5828 5829 5830 5831 5832 5834 5835 5836 5838 5839 5840 5841 5842 5843 5845 5846 5847 5849 5850 5851 5852 5853 5854 5855 5855 5856 5857 5857 5857 5858 5858 5859 5859 5859 5860 5860 5860 5860 5860 5860 5860 5859 5859 5859 5859 5858 5858 5857 5857 5857 5857 5856 5856 5855 5855 5854 5854 5853 5853 5852 5852 5851 5851 5850 5850 5850 5849 5849 5849 5849 5848 5848 5847 5846 5846 5845 5843 5841 5840 5838
5791 5793 5794 5796 5798 5799 5801 5803 5804 5807 5808 5810 5812 5815 5818 5820 5822 5825 5826 5827 5829 5830 5831 5833 5834 5836 5837 5838 5839 5840 5842 5843 5844 5845 5847 5848 5849 5850 5852 5852 5853 5854 5854 5855 5855 5856 5856 5857 5857 5858 5858 5858 5859 5859 5859 5859 5859 5859 5858 5858 5858 5858 5857 5857 5857 5856 5856 5855 5855 5855 5855 5854 5854 5853 5853 5852 5851 5851 5850 5850 5849 5849 5848 5848 5847 5847 5847 5847 5846 5846 5845 5845 5844 5842 5841 5839 5838
5788 5790 5792 5794 5795 5797 5798 5799 5801 5803 5805 5807 5809 5812 5814 5817 5820 5822 5823 5824 5826 5827 5829 5830 5832 5834 5835 5837 5838 5839 5840 5842 5843 5844 5845 5846 5847 5849 5850 5850 5851 5852 5852 5853 5854 5854 5855 5855 5856 5856 5857 5857 5857 5858 5858 5858 5858 5857 5857 5857 5857 5857 5856 5856 5856 5855 5855 5854 5854 5854 5854 5853 5853 5853 5852 5851 5851 5850 5850 5849 5848 5848 5847 5847 5846 5845 5845 5845 5845 5844 5844 5843 5842 5841 5840 5839 5837
5785 5787 5789 5791 5792 5794 5795 5796 5798 5800 5802 5803 5806 5809 5811 5814 5817 5819 5820 5822 5824 5825 5826 5828 5830 5832 5833 5835 5836 5838 5839 5840 5841 5842 5843 5844 5845 5846 5847 5848 5849 5850 5851 5851 5852 5853 5853 5854 5854 5855 5855 5856 5856 5856 5856 5856 5856 5856 5856 5856 5856 5856 5856 5855 5855 5854 5854 5854 5853 5853 5853 5852 5852 5852 5851 5851 5850 5850 5849 5848 5847 5847 5846 5845 5845 5844 5844 5843 5843 5843 5842 5842 5841 5840 5839 5838 5837
5782 5784 5785 5788 5789 5791 5792 5793 5795 5797 5799 5800 5804 5806 5808 5811 5814 5816 5817 5819 5821 5822 5823 5825 5828 5830 5831 5833 5835 5836 5837 5838 5839 5840 5842 5842 5843 5844 5845 5846 5847 5848 5849 5850 5850 5851 5852 5852 5853 5853 5854 5854 5855 5855 5855 5855 5855 5855 5855 5855 5855 5855 5855 5854 5854 5853 5853 5853 5852 5852 5852 5851 5851 5851 5850 5850 5850 5849 5849 5848 5847 5846 5845 5844 5843 5843 5842 5842 5842 5841 5841 5840 5840 5839 5838 5837 5836
5779 5781 5782 5785 5786 5788 5789 5790 5792 5794 5796 5798 5801 5803 5805 5809 5811 5813 5814 5817 5819 5820 5821 5823 5825 5827 5830 5831 5833 5835 5836 5836 5838 5839 5839 5840 5841 5842 5843 5844 5845 5846 5847 5848 5848 5849 5850 5851 5851 5852 5852 5853 5853 5853 5854 5853 5853 5853 5853 5853 5853 5853 5853 5853 5853 5852 5852 5852 5851 5851 5851 5850 5850 5850 5850 5849 5849 5849 5848 5847 5846 5845 5844 5843 5843 5842 5841 5841 5840 5840 5839 5838 5838 5837 5836 5835 5834
5776 5777 5779 5782 5783 5785 5786 5787 5789 5791 5793 5796 5798 5800 5802 5806 5809 5811 5813 5815 5816 5818 5820 5821 5823 5825 5828 5830 5832 5833 5834 5835 5836 5837 5837 5838 5839 5841 5842 5842 5843 5844 5845 5846 5847 5848 5848 5849 5850 5850 5851 5851 5851 5852 5852 5852 5852 5852 5852 5852 5852 5852 5852 5852 5852 5851 5851 5851 5850 5850 5850 5850 5849 5849 5849 5848 5848 5847 5847 5846 5845 5844 5843 5843 5842 5841 5840 5840 5839 5838 5838 5837 5836 5836 5835 5834 5833
5772 5775 5776 5778 5780 5781 5783 5785 5786 5788 5791 5793 5796 5798 5800 5804 5806 5808 5811 5813 5814 5816 5818 5820 5821 5824 5826 5828 5830 5830 5832 5833 5834 5834 5835 5836 5837 5839 5840 5840 5841 5842 5843 5844 5845 5846 5847 5847 5848 5848 5849 5849 5849 5850 5850 5850 5850 5850 5851 5851 5851 5851 5851 5851 5851 5850 5850 5850 5849 5849 5849 5849 5848 5848 5848 5847 5847 5846 5845 5845 5844 5843 5843 5842 5841 5840 5839 5838 5837 5837 5836 5835 5835 5834 5833 5833 5831
5769 5771 5772 5774 5777 5778 5780 5782 5783 5786 5789 5791 5794 5796 5798 5800 5803 5806 5809 5811 5812 5814 5816 5818 5820 5822 5824 5826 5827 5828 5829 5831 5831 5832 5833 5834 5835 5837 5837 5838 5839 5840 5841 5842 5843 5844 5845 5845 5846 5846 5847 5847 5848 5848 5848 5849 5849 5849 5849 5849 5850 5850 5850 5850 5850 5849 5849 5849 5848 5848 5848 5847 5847 5847 5846 5846 5845 5845 5844 5844 5843 5843 5842 5841 5840 5839 5838 5837 5836 5835 5834 5834 5833 5832 5832 5831 5830
5764 5766 5769 5771 5773 5775 5778 5779 5781 5784 5786 5788 5791 5794 5796 5797 5800 5804 5806 5808 5810 5812 5814 5816 5818 5820 5822 5823 5824 5826 5827 5828 5829 5830 5831 5832 5833 5834 5835 5835 5836 5837 5838 5839 5840 5841 5842 5843 5844 5844 5845 5845 5846 5846 5847 5847 5847 5847 5848 5848 5848 5848 5848 5848 5848 5848 5848 5848 5847 5847 5846 5846 5846 5845 5845 5844 5844 5844 5843 5843 5842 5842 5841 5840 5839 5838 5837 5836 5835 5834 5833 5832 5832 5831 5830 5829 5829
5759 5763 5766 5767 5770 5772 5776 5777 5779 5781 5783 5785 5788 5792 5794 5794 5797 5801 5804 5806 5808 5810 5811 5813 5815 5817 5818 5820 5821 5823 5824 5825 5827 5828 5829 5829 5830 5831 5831 5831 5832 5834 5835 5836 5838 5839 5840 5841 5842 5842 5843 5844 5844 5844 5845 5845 5846 5846 5846 5847 5847 5847 5847 5847 5847 5847 5846 5846 5846 5846 5845 5845 5844 5844 5844 5843 5843 5842 5841 5841 5841 5840 5840 5839 5838 5837 5836 5835 5834 5833 5832 5831 5830 5829 5828 5828 5827
5755 5759 5761 5763 5767 5771 5773 5775 5776 5778 5780 5782 5785 5789 5790 5791 5795 5799 5801 5804 5805 5807 5808 5810 5812 5813 5815 5817 5818 5819 5821 5823 5824 5825 5826 5826 5826 5825 5824 5826 5828 5830 5832 5834 5835 5837 5838 5839 5840 5841 5841 5842 5842 5843 5843 5844 5844 5844 5845 5845 5845 5845 5845 5845 5845 5845 5845 5845 5844 5844 5843 5843 5843 5843 5842 5842 5841 5840 5840 5839 5839 5839 5838 5837 5836 5835 5834 5833 5832 5831 5831 5830 5829 5828 5827 5826 5825
5752 5755 5757 5761 5767 5769 5770 5772 5774 5776 5778 5780 5782 5786 5787 5789 5793 5796 5798 5800 5801 5803 5805 5806 5808 5810 5812 5813 5815 5816 5818 5820 5822 5823 5824 5824 5824 5825 5826 5826 5827 5828 5831 5833 5834 5836 5837 5838 5839 5839 5839 5840 5840 5841 5841 5842 5842 5843 5843 5843 5843 5843 5844 5844 5844 5844 5844 5843 5843 5842 5842 5842 5842 5841 5841 5840 5839 5839 5838 5838 5837 5837 5836 5836 5835 5834 5833 5832 5831 5830 5829 5829 5828 5827 5826 5825 5824
5748 5753 5757 5762 5765 5767 5768 5769 5772 5774 5775 5777 5779 5783 5785 5787 5791 5794 5795 5797 5798 5800 5801 5803 5806 5807 5809 5810 5810 5813 5816 5818 5819 5821 5822 5822 5823 5826 5829 5830 5829 5829 5830 5832 5833 5834 5835 5836 5837 5837 5838 5838 5839 5839 5840 5840 5841 5841 5841 5841 5841 5842 5842 5842 5842 5842 5842 5842 5841 5841 5841 5840 5840 5840 5839 5838 5838 5837 5836 5836 5835 5835 5834 5834 5833 5832 5832 5831 5830 5829 5828 5827 5827 5826 5825 5824 5822
5745 5751 5755 5759 5762 5764 5765 5766 5770 5772 5773 5775 5777 5780 5783 5785 5788 5791 5792 5794 5795 5797 5799 5801 5804 5805 5805 5805 5807 5811 5814 5816 5817 5818 5819 5819 5819 5821 5823 5825 5828 5829 5830 5831 5831 5832 5834 5834 5835 5835 5836 5836 5837 5838 5838 5838 5839 5839 5839 5840 5840 5840 5840 5840 5840 5840 5840 5840 5840 5839 5839 5839 5838 5838 5837 5836 5836 5835 5834 5834 5833 5833 5832 5832 5831 5831 5830 5829 5828 5827 5827 5826 5825 5824 5823 5822 5821
5745 5749 5751 5755 5758 5760 5761 5763 5767 5769 5771 5773 5774 5777 5780 5782 5785 5787 5789 5791 5792 5794 5797 5799 5800 5800 5800 5802 5805 5809 5811 5813 5814 5816 5817 5816 5818 5820 5820 5820 5823 5825 5828 5829 5830 5831 5832 5832 5833 5834 5834 5835 5835 5836 5836 5836 5836 5837 5837 5838 5838 5839 5838 5838 5838 5838 5838 5838 5838 5838 5837 5837 5836 5836 5835 5835 5834 5833 5833 5832 5831 5831 5830 5830 5829 5829 5828 5827 5827 5826 5825 5824 5823 5822 5821 5820 5819
5742 5745 5748 5752 5755 5756 5758 5761 5764 5766 5769 5770 5771 5774 5777 5779 5782 5784 5786 5789 5790 5791 5793 5795 5795 5795 5796 5799 5803 5806 5809 5811 5812 5814 5815 5814 5817 5819 5819 5818 5819 5821 5824 5826 5828 5829 5830 5831 5831 5832 5832 5833 5833 5834 5834 5834 5834 5835 5835 5836 5836 5836 5837 5837 5836 5836 5836 5836 5836 5836 5835 5835 5834 5834 5833 5833 5832 5832 5831 5830 5830 5829 5829 5828 5828 5827 5827 5826 5825 5824 5823 5822 5821 5820 5819 5818 5817
5737 5741 5745 5748 5751 5753 5755 5758 5761 5763 5766 5766 5768 5772 5774 5776 5779 5780 5784 5787 5788 5787 5787 5790 5792 5793 5795 5797 5800 5804 5807 5809 5810 5811 5812 5812 5814 5816 5817 5817 5817 5819 5821 5823 5825 5827 5828 5829 5829 5830 5830 5831 5831 5831 5831 5832 5832 5832 5833 5833 5834 5834 5834 5835 5834 5834 5834 5834 5834 5834 5833 5833 5833 5832 5832 5831 5831 5830 5829 5829 5828 5828 5827 5826 5826 5825 5825 5824 5823 5823 5822 5821 5820 5818 5817 5816 5815
5733 5737 5741 5744 5747 5750 5752 5754 5758 5761 5763 5764 5767 5770 5770 5772 5776 5778 5781 5784 5783 5783 5785 5788 5790 5791 5793 5795 5799 5803 5805 5806 5807 5808 5809 5810 5812 5813 5814 5816 5817 5819 5820 5821 5823 5824 5825 5826 5827 5828 5828 5828 5828 5829 5829 5829 5829 5829 5830 5831 5831 5832 5832 5833 5833 5832 5832 5832 5832 5831 5831 5831 5831 5831 5830 5830 5829 5829 5828 5828 5827 5826 5825 5825 5824 5823 5823 5822 5822 5821 5820 5819 5818 5817 5815 5814 5813
5728 5733 5737 5740 5743 5747 5748 5751 5756 5759 5760 5762 5765 5767 5766 5769 5773 5775 5778 5780 5780 5782 5785 5787 5788 5789 5790 5793 5797 5801 5803 5804 5805 5807 5808 5808 5809 5810 5812 5814 5816 5817 5818 5819 5820 5822 5823 5824 5825 5825 5825 5826 5826 5826 5826 5826 5826 5827 5828 5829 5829 5830 5830 5831 5831 5830 5830 5830 5829 5829 5829 5829 5829 5829 5829 5828 5828 5827 5827 5826 5825 5824 5824 5823 5822 5821 5821 5820 5820 5820 5819 5818 5816 5815 5814 5813 5811
5725 5730 5733 5736 5741 5744 5746 5749 5754 5757 5758 5759 5762 5764 5765 5767 5770 5772 5774 5776 5778 5781 5784 5786 5787 5788 5789 5792 5796 5799 5801 5802 5803 5805 5806 5806 5807 5808 5809 5811 5812 5814 5815 5817 5818 5819 5820 5821 5821 5822 5822 5823 5824 5823 5823 5824 5824 5825 5827 5827 5828 5828 5828 5828 5828 5828 5828 5827 5827 5828 5828 5828 5828 5828 5827 5827 5826 5826 5825 5824 5824 5823 5822 5821 5820 5819 5819 5818 5818 5817 5817 5816 5815 5814 5813 5811 5810
5721 5726 5730 5734 5739 5741 5743 5747 5751 5753 5753 5755 5759 5762 5763 5764 5766 5769 5771 5773 5775 5778 5781 5784 5785 5786 5788 5791 5794 5796 5798 5800 5801 5803 5803 5803 5804 5806 5807 5808 5809 5812 5814 5815 5816 5817 5818 5819 5819 5819 5820 5820 5821 5821 5822 5823 5823 5824 5825 5825 5826 5826 5826 5826 5826 5826 5826 5826 5826 5826 5826 5826 5826 5826 5825 5825 5824 5824 5823 5822 5821 5821 5820 5819 5818 5818 5817 5816 5816 5815 5814 5814 5812 5812 5811 5810 5808
5716 5721 5727 5732 5735 5738 5741 5744 5747 5749 5749 5753 5757 5758 5760 5761 5763 5766 5768 5770 5772 5775 5778 5781 5783 5784 5786 5789 5792 5794 5795 5796 5797 5799 5800 5800 5802 5804 5805 5806 5808 5811 5812 5813 5814 5815 5816 5816 5817 5818 5818 5818 5819 5819 5820 5821 5822 5823 5824 5824 5824 5824 5824 5824 5824 5824 5824 5824 5825 5825 5825 5824 5824 5823 5823 5822 5822 5821 5821 5820 5819 5819 5818 5817 5816 5816 5815 5814 5814 5813 5812 5811 5810 5809 5808 5807 5806
5711 5718 5725 5728 5731 5735 5738 5740 5743 5745 5747 5752 5754 5755 5758 5759 5760 5763 5765 5767 5769 5773 5777 5779 5781 5782 5784 5787 5789 5791 5792 5792 5794 5796 5797 5798 5800 5801 5802 5804 5807 5809 5810 5810 5811 5812 5813 5814 5814 5815 5816 5816 5817 5818 5818 5820 5821 5821 5822 5822 5822 5822 5822 5822 5822 5823 5823 5823 5823 5823 5823 5822 5822 5821 5821 5820 5820 5819 5818 5818 5817 5816 5816 5815 5814 5813 5813 5812 5811 5810 5809 5808 5807 5807 5806 5805 5804
5709 5717 5721 5724 5729 5731 5734 5737 5739 5740 5743 5748 5750 5751 5755 5757 5758 5760 5762 5765 5769 5772 5776 5777 5779 5780 5781 5784 5787 5788 5788 5789 5792 5794 5794 5796 5798 5799 5801 5802 5804 5805 5806 5807 5809 5810 5811 5812 5812 5813 5814 5814 5815 5816 5817 5818 5819 5819 5820 5820 5820 5820 5820 5821 5821 5821 5821 5821 5821 5821 5821 5820 5820 5819 5819 5818 5818 5817 5816 5815 5815 5814 5813 5812 5812 5811 5810 5809 5809 5808 5807 5806 5805 5804 5803 5802 5801
5707 5714 5717 5720 5725 5727 5730 5733 5734 5737 5741 5745 5747 5748 5750 5753 5756 5756 5759 5764 5766 5769 5773 5775 5776 5778 5780 5782 5784 5785 5786 5787 5790 5791 5792 5794 5795 5797 5799 5800 5801 5802 5803 5805 5806 5807 5808 5809 5809 5810 5811 5812 5813 5814 5815 5815 5816 5817 5817 5817 5818 5818 5818 5819 5819 5819 5819 5819 5819 5819 5818 5818 5817 5817 5817 5816 5815 5815 5814 5813 5813 5812 5811 5810 5809 5808 5808 5807 5806 5805 5804 5803 5802 5801 5800 5799 5798
5704 5709 5711 5716 5719 5722 5726 5728 5730 5734 5737 5739 5742 5744 5746 5751 5753 5752 5755 5760 5763 5766 5770 5772 5774 5776 5777 5779 5781 5782 5783 5786 5788 5789 5790 5791 5793 5795 5796 5798 5799 5800 5801 5803 5804 5805 5805 5806 5807 5808 5809 5810 5811 5812 5812 5813 5813 5814 5815 5815 5815 5816 5816 5817 5817 5817 5817 5817 5817 5817 5816 5816 5815 5815 5814 5814 5813 5813 5812 5811 5810 5810 5809 5808 5807 5806 5805 5804 5803 5802 5801 5800 5799 5798 5797 5796 5795
5699 5703 5706 5710 5714 5717 5720 5722 5726 5730 5731 5733 5738 5741 5743 5748 5749 5748 5753 5759 5761 5764 5767 5770 5772 5774 5775 5776 5778 5779 5781 5784 5785 5786 5788 5789 5791 5792 5794 5795 5796 5797 5798 5800 5801 5802 5803 5804 5805 5806 5807 5808 5809 5810 5811 5811 5811 5812 5812 5812 5813 5814 5814 5815 5815 5815 5815 5815 5815 5814 5814 5813 5813 5812 5812 5811 5811 5810 5810 5809 5808 5807 5806 5805 5804 5803 5802 5801 5800 5799 5798 5797 5796 5795 5794 5793 5792
5695 5700 5703 5707 5710 5714 5717 5721 5723 5727 5728 5730 5736 5739 5740 5744 5744 5746 5753 5757 5759 5761 5764 5766 5769 5771 5772 5774 5776 5778 5779 5781 5783 5784 5785 5787 5788 5790 5792 5793 5792 5794 5796 5797 5799 5800 5801 5802 5803 5805 5806 5807 5807 5808 5809 5809 5809 5810 5810 5810 5811 5811 5812 5812 5812 5812 5812 5812 5812 5812 5811 5811 5810 5810 5809 5809 5808 5808 5807 5806 5805 5805 5804 5802 5801 5800 5799 5798 5797 5796 5795 5794 5793 5792 5791 5790 5789
5694 5698 5700 5703 5708 5712 5716 5719 5721 5725 5726 5727 5733 5737 5738 5739 5741 5746 5752 5754 5756 5758 5761 5763 5765 5767 5770 5772 5774 5776 5778 5779 5781 5782 5783 5784 5785 5787 5788 5788 5788 5791 5793 5795 5797 5798 5799 5801 5802 5803 5804 5804 5805 5806 5807 5807 5807 5808 5808 5808 5809 5809 5810 5810 5810 5810 5810 5810 5809 5809 5809 5809 5808 5808 5807 5806 5806 5805 5804 5803 5802 5801 5801 5800 5798 5797 5796 5795 5794 5793 5792 5791 5790 5789 5788 5787 5786
5690 5694 5697 5702 5707 5709 5712 5716 5719 5723 5723 5725 5732 5736 5735 5736 5739 5744 5749 5751 5754 5756 5758 5760 5762 5765 5768 5770 5772 5774 5776 5778 5779 5780 5781 5781 5782 5783 5783 5783 5787 5790 5791 5792 5794 5795 5797 5798 5799 5800 5801 5802 5803 5804 5805 5805 5806 5806 5806 5807 5807 5807 5807 5807 5807 5807 5807 5807 5807 5807 5807 5806 5806 5805 5805 5804 5803 5802 5801 5800 5800 5798 5798 5797 5796 5794 5793 5792 5791 5790 5789 5788 5787 5786 5785 5784 5783
5685 5689 5694 5698 5701 5703 5708 5713 5716 5719 5721 5724 5729 5732 5732 5734 5737 5741 5745 5748 5751 5754 5756 5758 5759 5762 5765 5767 5770 5772 5774 5775 5775 5775 5775 5775 5776 5778 5779 5783 5788 5790 5790 5791 5792 5793 5794 5795 5796 5797 5798 5799 5800 5801 5802 5803 5803 5803 5804 5804 5804 5805 5805 5805 5805 5805 5805 5805 5805 5805 5805 5804 5804 5803 5802 5801 5800 5800 5799 5798 5797 5796 5795 5794 5793 5792 5790 5789 5788 5787 5786 5784 5783 5782 5781 5780 5779
5680 5686 5691 5693 5696 5700 5705 5709 5711 5715 5718 5721 5725 5728 5729 5730 5733 5738 5743 5746 5749 5752 5754 5755 5757 5760 5763 5765 5768 5770 5770 5769 5769 5770 5770 5771 5775 5779 5783 5787 5789 5788 5789 5789 5789 5790 5792 5793 5793 5795 5795 5796 5797 5798 5799 5799 5800 5800 5801 5801 5802 5802 5802 5802 5802 5802 5802 5802 5802 5802 5802 5801 5801 5800 5799 5798 5798 5797 5796 5795 5794 5793 5792 5791 5790 5788 5787 5786 5785 5784 5782 5781 5780 5779 5778 5776 5775
5677 5684 5688 5691 5696 5701 5704 5707 5709 5713 5716 5718 5721 5724 5725 5726 5730 5735 5740 5743 5746 5749 5751 5753 5754 5757 5760 5763 5765 5765 5765 5766 5767 5769 5772 5775 5779 5781 5784 5786 5785 5783 5784 5785 5785 5787 5789 5790 5791 5792 5792 5793 5794 5795 5796 5796 5797 5797 5798 5799 5799 5800 5800 5799 5800 5800 5800 5800 5800 5800 5799 5799 5798 5797 5797 5796 5795 5794 5793 5792 5791 5790 5789 5787 5786 5785 5784 5782 5781 5780 5779 5777 5776 5775 5774 5773 5771
5676 5680 5683 5688 5693 5696 5700 5704 5707 5711 5714 5716 5718 5721 5723 5724 5726 5733 5738 5740 5743 5746 5748 5750 5751 5753 5757 5760 5761 5762 5763 5765 5767 5770 5772 5774 5777 5779 5779 5780 5780 5779 5780 5782 5783 5784 5786 5786 5787 5787 5788 5789 5790 5792 5792 5793 5794 5794 5795 5796 5796 5797 5797 5797 5797 5797 5797 5797 5797 5797 5796 5796 5795 5794 5794 5793 5792 5791 5789 5788 5787 5786 5785 5784 5783 5781 5780 5779 5777 5776 5775 5773 5772 5771 5769 5768 5767
5675 5678 5681 5686 5689 5691 5695 5699 5702 5707 5710 5712 5715 5719 5721 5721 5723 5729 5734 5737 5740 5742 5744 5746 5748 5751 5754 5757 5759 5760 5762 5764 5765 5767 5769 5770 5772 5775 5775 5775 5775 5777 5779 5781 5781 5781 5782 5782 5782 5782 5783 5785 5787 5788 5789 5790 5791 5792 5793 5793 5794 5794 5794 5794 5794 5795 5795 5795 5794 5794 5793 5793 5792 5791 5790 5790 5789 5787 5786 5785 5784 5782 5781 5780 5779 5777 5776 5775 5773 5772 5770 5769 5768 5766 5765 5764 5762